Time,TemperatureF,DewpointF,PressureIn,WindDirection,WindDirectionDegrees,WindSpeedMPH,WindSpeedGustMPH,Humidity,HourlyPrecipIn,Conditions,Clouds,dailyrainin,SoftwareType,DateUTC
2013-05-10 00:03:00,63.0,59.0,29.98,NE,56,1.0,3.0,88,0.00,,,0.01,,2013-05-10 04:03:00,
2013-05-10 00:12:00,63.0,59.0,29.98,NE,56,1.0,3.0,88,0.00,,,0.01,,2013-05-10 04:12:00,
2013-05-10 00:23:00,63.0,60.0,29.98,NE,56,0.0,3.0,89,0.00,,,0.01,,2013-05-10 04:23:00,
2013-05-10 00:33:00,63.0,60.0,29.98,NE,56,0.0,1.0,89,0.00,,,0.01,,2013-05-10 04:33:00,
2013-05-10 00:43:00,62.0,59.0,29.97,ENE,59,0.0,4.0,90,0.00,,,0.01,,2013-05-10 04:43:00,
2013-05-10 00:52:00,62.0,59.0,29.97,ENE,59,0.0,4.0,90,0.00,,,0.01,,2013-05-10 04:52:00,
2013-05-10 01:02:00,62.0,59.0,29.97,ENE,57,0.0,1.0,91,0.01,,,0.02,,2013-05-10 05:02:00,
2013-05-10 01:12:00,62.0,59.0,29.98,ENE,59,0.0,3.0,91,0.01,,,0.02,,2013-05-10 05:12:00,
2013-05-10 01:22:00,62.0,59.0,29.98,ENE,59,0.0,3.0,91,0.01,,,0.02,,2013-05-10 05:22:00,
2013-05-10 01:32:00,62.0,60.0,29.99,SSW,196,2.0,6.0,92,0.09,,,0.10,,2013-05-10 05:32:00,
2013-05-10 01:42:00,62.0,60.0,29.99,South,187,1.0,8.0,93,0.14,,,0.15,,2013-05-10 05:42:00,
2013-05-10 01:52:00,62.0,60.0,29.99,South,187,1.0,8.0,93,0.14,,,0.15,,2013-05-10 05:52:00,
2013-05-10 02:02:00,61.0,59.0,29.98,SE,144,3.0,5.0,93,0.22,,,0.24,,2013-05-10 06:02:00,
2013-05-10 02:12:00,61.0,59.0,29.97,ESE,119,5.0,8.0,93,0.24,,,0.26,,2013-05-10 06:12:00,
2013-05-10 02:21:00,61.0,59.0,29.97,ESE,119,5.0,8.0,93,0.24,,,0.26,,2013-05-10 06:21:00,
2013-05-10 02:32:00,61.0,59.0,29.95,ESE,116,8.0,13.0,94,0.19,,,0.29,,2013-05-10 06:32:00,
2013-05-10 02:42:00,61.0,59.0,29.95,ESE,116,8.0,13.0,94,0.19,,,0.29,,2013-05-10 06:42:00,
2013-05-10 02:51:00,61.0,59.0,29.94,ESE,119,9.0,11.0,94,0.15,,,0.29,,2013-05-10 06:51:00,
2013-05-10 03:02:00,61.0,59.0,29.92,SE,128,9.0,14.0,94,0.06,,,0.30,,2013-05-10 07:02:00,
2013-05-10 03:12:00,61.0,59.0,29.92,SE,128,9.0,14.0,94,0.06,,,0.30,,2013-05-10 07:12:00,
2013-05-10 03:22:00,61.0,59.0,29.91,ESE,118,9.0,15.0,94,0.04,,,0.30,,2013-05-10 07:22:00,
2013-05-10 03:32:00,61.0,59.0,29.91,SE,140,9.0,15.0,94,0.01,,,0.30,,2013-05-10 07:32:00,
2013-05-10 03:42:00,61.0,59.0,29.91,ESE,119,10.0,15.0,93,0.01,,,0.30,,2013-05-10 07:42:00,
2013-05-10 03:52:00,61.0,59.0,29.91,ESE,119,10.0,15.0,93,0.01,,,0.30,,2013-05-10 07:52:00,
2013-05-10 04:02:00,61.0,59.0,29.91,SE,144,7.0,14.0,93,0.00,,,0.30,,2013-05-10 08:02:00,
2013-05-10 04:12:00,61.0,59.0,29.91,SE,144,7.0,14.0,93,0.00,,,0.30,,2013-05-10 08:12:00,
2013-05-10 04:22:00,61.0,59.0,29.91,South,173,8.0,14.0,92,0.00,,,0.30,,2013-05-10 08:22:00,
2013-05-10 04:32:00,61.0,59.0,29.91,SE,140,8.0,12.0,92,0.00,,,0.30,,2013-05-10 08:32:00,
2013-05-10 04:42:00,61.0,59.0,29.91,SSE,157,9.0,16.0,92,0.00,,,0.30,,2013-05-10 08:42:00,
2013-05-10 04:52:00,61.0,59.0,29.91,SSE,157,9.0,16.0,92,0.00,,,0.30,,2013-05-10 08:52:00,
2013-05-10 05:02:00,61.0,59.0,29.91,South,171,6.0,14.0,92,0.00,,,0.30,,2013-05-10 09:02:00,
2013-05-10 05:11:00,61.0,59.0,29.91,South,171,6.0,14.0,92,0.00,,,0.30,,2013-05-10 09:11:00,
2013-05-10 05:21:00,61.0,59.0,29.90,SE,126,7.0,13.0,92,0.00,,,0.30,,2013-05-10 09:21:00,
2013-05-10 05:33:00,61.0,59.0,29.90,SSE,168,6.0,11.0,92,0.00,,,0.30,,2013-05-10 09:33:00,
2013-05-10 05:43:00,61.0,59.0,29.90,SSE,168,6.0,11.0,92,0.00,,,0.30,,2013-05-10 09:43:00,
2013-05-10 05:52:00,61.0,59.0,29.90,SSE,159,6.0,14.0,92,0.00,,,0.30,,2013-05-10 09:52:00,
2013-05-10 06:03:00,61.0,59.0,29.89,SSE,153,7.0,15.0,92,0.00,,,0.30,,2013-05-10 10:03:00,
2013-05-10 06:12:00,61.0,59.0,29.89,SSE,153,7.0,15.0,92,0.00,,,0.30,,2013-05-10 10:12:00,
2013-05-10 06:23:00,61.0,59.0,29.89,South,176,5.0,13.0,92,0.00,,,0.30,,2013-05-10 10:23:00,
2013-05-10 06:32:00,61.0,59.0,29.88,South,179,5.0,10.0,92,0.00,,,0.30,,2013-05-10 10:32:00,
2013-05-10 06:42:00,61.0,59.0,29.88,South,179,5.0,10.0,92,0.00,,,0.30,,2013-05-10 10:42:00,
2013-05-10 06:52:00,61.0,59.0,29.88,SSE,150,5.0,10.0,92,0.00,,,0.30,,2013-05-10 10:52:00,
2013-05-10 07:02:00,61.0,59.0,29.89,SSE,151,5.0,9.0,92,0.00,,,0.30,,2013-05-10 11:02:00,
2013-05-10 07:12:00,61.0,59.0,29.89,SSE,159,4.0,9.0,93,0.00,,,0.30,,2013-05-10 11:12:00,
2013-05-10 07:22:00,61.0,59.0,29.89,SSE,159,4.0,9.0,93,0.00,,,0.30,,2013-05-10 11:22:00,
2013-05-10 07:32:00,61.0,59.0,29.89,SE,126,5.0,9.0,93,0.00,,,0.30,,2013-05-10 11:32:00,
2013-05-10 07:42:00,61.0,59.0,29.89,SSE,162,6.0,10.0,93,0.00,,,0.30,,2013-05-10 11:42:00,
2013-05-10 07:51:00,61.0,59.0,29.89,SSE,162,6.0,10.0,93,0.00,,,0.30,,2013-05-10 11:51:00,
2013-05-10 08:02:00,62.0,60.0,29.89,SSE,165,5.0,9.0,92,0.00,,,0.30,,2013-05-10 12:02:00,
2013-05-10 08:12:00,62.0,60.0,29.89,SSE,165,5.0,9.0,92,0.00,,,0.30,,2013-05-10 12:12:00,
2013-05-10 08:22:00,62.0,60.0,29.90,SSE,156,6.0,11.0,93,0.00,,,0.30,,2013-05-10 12:22:00,
2013-05-10 08:32:00,63.0,61.0,29.89,SSE,149,5.0,12.0,92,0.00,,,0.30,,2013-05-10 12:32:00,
2013-05-10 08:42:00,63.0,61.0,29.89,SSE,149,5.0,12.0,92,0.00,,,0.30,,2013-05-10 12:42:00,
2013-05-10 08:51:00,63.0,61.0,29.89,SSE,162,8.0,12.0,92,0.00,,,0.30,,2013-05-10 12:51:00,
2013-05-10 09:01:00,64.0,61.0,29.90,SSE,149,8.0,12.0,90,0.00,,,0.30,,2013-05-10 13:01:00,
2013-05-10 09:11:00,64.0,61.0,29.90,SSE,149,8.0,12.0,90,0.00,,,0.30,,2013-05-10 13:11:00,
2013-05-10 09:21:00,64.0,61.0,29.89,South,184,8.0,11.0,89,0.00,,,0.30,,2013-05-10 13:21:00,
2013-05-10 09:32:00,65.0,62.0,29.90,South,173,7.0,11.0,89,0.00,,,0.30,,2013-05-10 13:32:00,
2013-05-10 09:42:00,65.0,62.0,29.89,South,171,9.0,17.0,89,0.00,,,0.30,,2013-05-10 13:42:00,
2013-05-10 09:52:00,65.0,62.0,29.89,South,171,9.0,17.0,89,0.00,,,0.30,,2013-05-10 13:52:00,
2013-05-10 10:02:00,65.0,62.0,29.89,South,177,8.0,14.0,89,0.00,,,0.30,,2013-05-10 14:02:00,
2013-05-10 10:11:00,65.0,62.0,29.89,South,177,8.0,14.0,89,0.00,,,0.30,,2013-05-10 14:11:00,
2013-05-10 10:21:00,66.0,62.0,29.89,SSE,161,9.0,15.0,88,0.00,,,0.30,,2013-05-10 14:21:00,
2013-05-10 10:32:00,67.0,63.0,29.88,South,174,8.0,14.0,87,0.00,,,0.30,,2013-05-10 14:32:00,
2013-05-10 10:42:00,67.0,63.0,29.88,South,172,7.0,17.0,87,0.00,,,0.30,,2013-05-10 14:42:00,
2013-05-10 10:51:00,67.0,63.0,29.88,South,172,7.0,17.0,87,0.00,,,0.30,,2013-05-10 14:51:00,
2013-05-10 11:02:00,67.0,63.0,29.88,SSE,161,7.0,15.0,86,0.00,,,0.30,,2013-05-10 15:02:00,
2013-05-10 11:20:00,-999.0,-99.9,29.88,SSE,163,9.0,16.0,86,0.00,,,0.30,,2013-05-10 15:20:00,
2013-05-10 11:32:00,68.0,63.0,29.89,SSW,198,9.0,17.0,85,0.00,,,0.30,,2013-05-10 15:32:00,
2013-05-10 11:42:00,69.0,64.0,29.89,South,172,10.0,17.0,83,0.00,,,0.30,,2013-05-10 15:42:00,
2013-05-10 11:53:00,69.0,64.0,29.89,South,172,10.0,17.0,83,0.00,,,0.30,,2013-05-10 15:53:00,
2013-05-10 12:02:00,69.0,64.0,29.89,South,182,9.0,18.0,83,0.00,,,0.30,,2013-05-10 16:02:00,
2013-05-10 12:12:00,69.0,63.0,29.89,South,188,11.0,17.0,82,0.00,,,0.30,,2013-05-10 16:12:00,
2013-05-10 12:23:00,69.0,63.0,29.89,South,188,11.0,17.0,82,0.00,,,0.30,,2013-05-10 16:23:00,
2013-05-10 12:33:00,69.0,63.0,29.89,South,171,12.0,17.0,81,0.00,,,0.30,,2013-05-10 16:33:00,
2013-05-10 12:42:00,69.0,63.0,29.90,South,180,11.0,21.0,82,0.00,,,0.30,,2013-05-10 16:42:00,
2013-05-10 12:52:00,69.0,63.0,29.90,South,180,11.0,21.0,82,0.00,,,0.30,,2013-05-10 16:52:00,
2013-05-10 13:02:00,69.0,63.0,29.89,South,172,12.0,22.0,81,0.00,,,0.30,,2013-05-10 17:02:00,
2013-05-10 13:12:00,69.0,63.0,29.89,South,172,12.0,22.0,81,0.00,,,0.30,,2013-05-10 17:12:00,
2013-05-10 13:22:00,70.0,64.0,29.89,South,178,9.0,17.0,82,0.00,,,0.30,,2013-05-10 17:22:00,
2013-05-10 13:32:00,70.0,64.0,29.88,South,184,11.0,17.0,80,0.00,,,0.30,,2013-05-10 17:32:00,
2013-05-10 13:42:00,69.0,63.0,29.88,South,186,12.0,18.0,80,0.00,,,0.30,,2013-05-10 17:42:00,
2013-05-10 13:52:00,69.0,63.0,29.88,South,186,12.0,18.0,80,0.00,,,0.30,,2013-05-10 17:52:00,
2013-05-10 14:10:00,-999.0,-99.9,29.89,South,179,10.0,17.0,86,0.01,,,0.31,,2013-05-10 18:10:00,
2013-05-10 14:22:00,67.0,63.0,29.88,South,179,10.0,16.0,88,0.02,,,0.32,,2013-05-10 18:22:00,
2013-05-10 14:34:00,67.0,64.0,29.88,South,180,10.0,15.0,89,0.03,,,0.33,,2013-05-10 18:34:00,
2013-05-10 14:43:00,67.0,64.0,29.88,South,169,8.0,14.0,89,0.03,,,0.33,,2013-05-10 18:43:00,
2013-05-10 14:54:00,67.0,64.0,29.88,South,169,8.0,14.0,89,0.03,,,0.33,,2013-05-10 18:54:00,
2013-05-10 15:02:00,67.0,64.0,29.88,South,175,7.0,12.0,89,0.02,,,0.33,,2013-05-10 19:02:00,
2013-05-10 15:11:00,67.0,64.0,29.88,South,175,7.0,12.0,89,0.02,,,0.33,,2013-05-10 19:11:00,
2013-05-10 15:21:00,67.0,64.0,29.87,South,171,6.0,14.0,89,0.01,,,0.33,,2013-05-10 19:21:00,
2013-05-10 15:32:00,67.0,63.0,29.87,SSE,161,7.0,16.0,88,0.00,,,0.33,,2013-05-10 19:32:00,
2013-05-10 15:42:00,68.0,64.0,29.87,SSE,159,10.0,16.0,87,0.00,,,0.33,,2013-05-10 19:42:00,
2013-05-10 15:52:00,68.0,64.0,29.87,SSE,159,10.0,16.0,87,0.00,,,0.33,,2013-05-10 19:52:00,
2013-05-10 16:02:00,67.0,63.0,29.86,SSE,153,5.0,12.0,88,0.00,,,0.33,,2013-05-10 20:02:00,
2013-05-10 16:12:00,67.0,63.0,29.86,SSE,153,5.0,12.0,88,0.00,,,0.33,,2013-05-10 20:12:00,
2013-05-10 16:21:00,67.0,63.0,29.86,SSE,148,7.0,15.0,87,0.00,,,0.33,,2013-05-10 20:21:00,
2013-05-10 16:32:00,67.0,64.0,29.85,SSE,161,8.0,11.0,89,0.00,,,0.33,,2013-05-10 20:32:00,
2013-05-10 16:42:00,67.0,64.0,29.85,SSE,161,8.0,11.0,89,0.00,,,0.33,,2013-05-10 20:42:00,
2013-05-10 16:52:00,67.0,64.0,29.85,South,169,6.0,13.0,90,0.00,,,0.33,,2013-05-10 20:52:00,
2013-05-10 17:02:00,66.0,63.0,29.84,South,169,8.0,13.0,91,0.00,,,0.33,,2013-05-10 21:02:00,
2013-05-10 17:11:00,65.0,63.0,29.84,SSE,167,6.0,15.0,92,0.00,,,0.33,,2013-05-10 21:11:00,
2013-05-10 17:25:00,65.0,63.0,29.84,SSE,167,6.0,15.0,92,0.00,,,0.33,,2013-05-10 21:25:00,
2013-05-10 17:32:00,66.0,64.0,29.84,South,186,5.0,11.0,92,0.00,,,0.33,,2013-05-10 21:32:00,
2013-05-10 17:43:00,66.0,64.0,29.84,South,180,4.0,7.0,92,0.00,,,0.33,,2013-05-10 21:43:00,
2013-05-10 17:52:00,66.0,64.0,29.84,South,180,4.0,7.0,92,0.00,,,0.33,,2013-05-10 21:52:00,
2013-05-10 18:03:00,66.0,63.0,29.83,South,169,6.0,13.0,90,0.00,,,0.33,,2013-05-10 22:03:00,
2013-05-10 18:13:00,66.0,63.0,29.83,South,169,6.0,13.0,90,0.00,,,0.33,,2013-05-10 22:13:00,
2013-05-10 18:22:00,66.0,63.0,29.83,South,182,8.0,14.0,90,0.00,,,0.33,,2013-05-10 22:22:00,
2013-05-10 18:32:00,67.0,64.0,29.83,SE,144,7.0,12.0,90,0.00,,,0.33,,2013-05-10 22:32:00,
2013-05-10 18:42:00,67.0,64.0,29.83,South,169,6.0,10.0,89,0.00,,,0.33,,2013-05-10 22:42:00,
2013-05-10 18:52:00,67.0,64.0,29.83,South,169,6.0,10.0,89,0.00,,,0.33,,2013-05-10 22:52:00,
2013-05-10 19:02:00,67.0,63.0,29.82,SE,146,6.0,12.0,88,0.00,,,0.33,,2013-05-10 23:02:00,
2013-05-10 19:12:00,67.0,63.0,29.82,SE,146,6.0,12.0,88,0.00,,,0.33,,2013-05-10 23:12:00,
2013-05-10 19:22:00,67.0,63.0,29.82,South,183,5.0,13.0,88,0.00,,,0.33,,2013-05-10 23:22:00,
2013-05-10 19:33:00,67.0,63.0,29.82,SSW,207,2.0,6.0,88,0.00,,,0.33,,2013-05-10 23:33:00,
2013-05-10 19:42:00,67.0,61.0,29.82,SW,227,6.0,12.0,82,0.00,,,0.33,,2013-05-10 23:42:00,
2013-05-10 19:52:00,67.0,61.0,29.82,SW,227,6.0,12.0,82,0.00,,,0.33,,2013-05-10 23:52:00,
2013-05-10 20:02:00,67.0,61.0,29.83,SW,231,6.0,15.0,80,0.00,,,0.33,,2013-05-11 00:02:00,
2013-05-10 20:11:00,67.0,61.0,29.83,SSW,207,6.0,12.0,81,0.00,,,0.33,,2013-05-11 00:11:00,
2013-05-10 20:21:00,67.0,61.0,29.83,SSW,207,6.0,12.0,81,0.00,,,0.33,,2013-05-11 00:21:00,
2013-05-10 20:32:00,66.0,60.0,29.84,SW,236,5.0,14.0,81,0.00,,,0.33,,2013-05-11 00:32:00,
2013-05-10 20:42:00,66.0,60.0,29.85,SSW,211,5.0,12.0,80,0.00,,,0.33,,2013-05-11 00:42:00,
2013-05-10 20:52:00,66.0,60.0,29.85,SSW,211,5.0,12.0,80,0.00,,,0.33,,2013-05-11 00:52:00,
2013-05-10 21:01:00,65.0,59.0,29.85,West,273,4.0,14.0,80,0.00,,,0.33,,2013-05-11 01:01:00,
2013-05-10 21:11:00,65.0,59.0,29.85,West,273,4.0,14.0,80,0.00,,,0.33,,2013-05-11 01:11:00,
2013-05-10 21:21:00,64.0,58.0,29.85,WNW,295,2.0,9.0,81,0.00,,,0.33,,2013-05-11 01:21:00,
2013-05-10 21:32:00,63.0,57.0,29.86,WSW,253,4.0,10.0,80,0.00,,,0.33,,2013-05-11 01:32:00,
2013-05-10 21:42:00,62.0,56.0,29.87,West,269,3.0,9.0,81,0.00,,,0.33,,2013-05-11 01:42:00,
2013-05-10 21:52:00,62.0,56.0,29.87,West,269,3.0,9.0,81,0.00,,,0.33,,2013-05-11 01:52:00,
2013-05-10 22:02:00,61.0,56.0,29.88,WNW,295,5.0,13.0,83,0.00,,,0.33,,2013-05-11 02:02:00,
2013-05-10 22:11:00,61.0,56.0,29.88,WNW,295,5.0,13.0,83,0.00,,,0.33,,2013-05-11 02:11:00,
2013-05-10 22:22:00,61.0,56.0,29.88,WSW,241,5.0,10.0,83,0.00,,,0.33,,2013-05-11 02:22:00,
2013-05-10 22:32:00,59.0,54.0,29.90,West,271,7.0,16.0,84,0.00,,,0.33,,2013-05-11 02:32:00,
2013-05-10 22:42:00,58.0,53.0,29.90,WNW,284,9.0,14.0,84,0.00,,,0.33,,2013-05-11 02:42:00,
2013-05-10 22:52:00,58.0,53.0,29.90,WNW,284,9.0,14.0,84,0.00,,,0.33,,2013-05-11 02:52:00,
2013-05-10 23:01:00,56.0,52.0,29.91,WSW,240,6.0,15.0,86,0.00,,,0.33,,2013-05-11 03:01:00,
2013-05-10 23:11:00,56.0,52.0,29.91,WSW,240,6.0,15.0,86,0.00,,,0.33,,2013-05-11 03:11:00,
2013-05-10 23:21:00,56.0,52.0,29.91,SW,227,3.0,11.0,87,0.00,,,0.33,,2013-05-11 03:21:00,
2013-05-10 23:33:00,55.0,52.0,29.92,West,273,5.0,14.0,88,0.00,,,0.33,,2013-05-11 03:33:00,
2013-05-10 23:42:00,54.0,51.0,29.92,WSW,249,5.0,12.0,89,0.00,,,0.33,,2013-05-11 03:42:00,
2013-05-10 23:53:00,54.0,51.0,29.92,WSW,249,5.0,12.0,89,0.00,,,0.33,,2013-05-11 03:53:00,